• în România
  • Lista ţărilor
  • Pe 7 zile
  • Temperatura apei
  • Hartă satelitară
  • Meteo pe hartă
  • Widget-uri
  • user-avatar
    Intrare

    Meteo pe oră la Sinec

    Astăzi, 23 Iulie, Luni

    Timp Temperatura Precipitaţii Vânt Presiune Umiditate
    00:00 +18°C° 0 mm 2 m/s 740 mmHg 98%
    01:00 +18°C° 0 mm 2 m/s 740 mmHg 98%
    02:00 +18°C° 0 mm 2 m/s 740 mmHg 98%
    03:00 +18°C° 0 mm 2 m/s 740 mmHg 98%
    04:00 +18°C° 0 mm 2 m/s 740 mmHg 98%
    05:00 +18°C° 0 mm 2 m/s 740 mmHg 98%
    06:00 +19°C° 0 mm 2 m/s 740 mmHg 94%
    07:00 +20°C° 0 mm 2 m/s 741 mmHg 91%
    08:00 +21°C° 0 mm 3 m/s 741 mmHg 87%
    09:00 +21°C° 0,1 mm 3 m/s 741 mmHg 84%
    10:00 +22°C° 0,1 mm 3 m/s 741 mmHg 81%
    11:00 +22°C° 0,1 mm 3 m/s 741 mmHg 79%
    12:00 +24°C° 0,1 mm 3 m/s 741 mmHg 75%
    13:00 +24°C° 0,1 mm 3 m/s 741 mmHg 71%
    14:00 +25°C° 0,1 mm 3 m/s 741 mmHg 67%
    15:00 +25°C° 0,1 mm 3 m/s 741 mmHg 69%
    16:00 +25°C° 0,1 mm 3 m/s 741 mmHg 71%
    17:00 +25°C° 0,1 mm 3 m/s 741 mmHg 72%
    18:00 +23°C° 0,2 mm 2 m/s 741 mmHg 79%
    19:00 +21°C° 0,2 mm 2 m/s 741 mmHg 85%
    20:00 +19°C° 0,2 mm 2 m/s 741 mmHg 92%
    21:00 +19°C° 0 mm 2 m/s 741 mmHg 94%
    22:00 +18°C° 0 mm 2 m/s 742 mmHg 96%
    23:00 +17°C° 0 mm 2 m/s 742 mmHg 97%

    Mâine, 24 Iulie, Marţi

    Timp Temperatura Precipitaţii Vânt Presiune Umiditate
    00:00 +17°C° 0 mm 2 m/s 742 mmHg 98%
    01:00 +16°C° 0 mm 2 m/s 742 mmHg 98%
    02:00 +16°C° 0 mm 2 m/s 742 mmHg 98%
    03:00 +16°C° 0 mm 2 m/s 742 mmHg 98%
    04:00 +16°C° 0 mm 2 m/s 742 mmHg 98%
    05:00 +16°C° 0 mm 2 m/s 742 mmHg 97%
    06:00 +17°C° 0 mm 2 m/s 742 mmHg 94%
    07:00 +18°C° 0 mm 3 m/s 742 mmHg 90%
    08:00 +19°C° 0 mm 3 m/s 742 mmHg 86%
    09:00 +20°C° 0 mm 3 m/s 742 mmHg 83%
    10:00 +21°C° 0 mm 3 m/s 742 mmHg 79%
    11:00 +22°C° 0 mm 3 m/s 743 mmHg 76%
    12:00 +24°C° 0,1 mm 3 m/s 742 mmHg 73%
    13:00 +25°C° 0,1 mm 3 m/s 742 mmHg 71%
    14:00 +25°C° 0,1 mm 3 m/s 742 mmHg 69%
    15:00 +25°C° 0,2 mm 3 m/s 742 mmHg 72%
    16:00 +24°C° 0,2 mm 3 m/s 742 mmHg 76%
    17:00 +24°C° 0,2 mm 3 m/s 742 mmHg 79%
    18:00 +22°C° 0,1 mm 3 m/s 743 mmHg 83%
    19:00 +21°C° 0,1 mm 2 m/s 743 mmHg 87%
    20:00 +20°C° 0,1 mm 2 m/s 743 mmHg 90%
    21:00 +19°C° 0 mm 2 m/s 743 mmHg 93%
    22:00 +19°C° 0 mm 2 m/s 743 mmHg 95%
    23:00 +18°C° 0 mm 2 m/s 743 mmHg 98%

    Poimâine, 25 Iulie, Miercuri

    Timp Temperatura Precipitaţii Vânt Presiune Umiditate
    00:00 +18°C° 0 mm 2 m/s 743 mmHg 98%
    01:00 +18°C° 0 mm 2 m/s 743 mmHg 98%
    02:00 +18°C° 0 mm 2 m/s 743 mmHg 98%
    03:00 +18°C° 0 mm 2 m/s 743 mmHg 98%
    04:00 +18°C° 0 mm 2 m/s 743 mmHg 98%
    05:00 +18°C° 0 mm 2 m/s 743 mmHg 97%
    06:00 +19°C° 0 mm 2 m/s 743 mmHg 95%
    07:00 +20°C° 0 mm 2 m/s 743 mmHg 94%
    08:00 +20°C° 0 mm 3 m/s 744 mmHg 92%
    09:00 +22°C° 0,2 mm 3 m/s 744 mmHg 87%
    10:00 +24°C° 0,2 mm 3 m/s 744 mmHg 82%
    11:00 +26°C° 0,2 mm 3 m/s 744 mmHg 77%
    12:00 +26°C° 0,6 mm 3 m/s 744 mmHg 76%
    13:00 +26°C° 0,6 mm 4 m/s 744 mmHg 74%
    14:00 +26°C° 0,6 mm 4 m/s 744 mmHg 73%
    15:00 +25°C° 0 mm 4 m/s 744 mmHg 70%
    16:00 +23°C° 0 mm 4 m/s 744 mmHg 68%
    17:00 +22°C° 0 mm 4 m/s 745 mmHg 66%
    18:00 +21°C° 0 mm 3 m/s 745 mmHg 71%
    19:00 +20°C° 0 mm 3 m/s 744 mmHg 77%
    20:00 +18°C° 0 mm 2 m/s 744 mmHg 83%
    21:00 +18°C° 0 mm 2 m/s 744 mmHg 85%
    22:00 +18°C° 0 mm 2 m/s 744 mmHg 87%
    23:00 +18°C° 0 mm 3 m/s 744 mmHg 89%

    26 Iulie, Joi

    Timp Temperatura Precipitaţii Vânt Presiune Umiditate
    00:00 +18°C° 0 mm 3 m/s 744 mmHg 91%
    01:00 +18°C° 0 mm 3 m/s 744 mmHg 93%
    02:00 +17°C° 0 mm 2 m/s 744 mmHg 95%
    03:00 +18°C° 0,1 mm 2 m/s 744 mmHg 94%
    04:00 +18°C° 0,1 mm 3 m/s 744 mmHg 93%
    05:00 +18°C° 0,1 mm 3 m/s 744 mmHg 92%
    06:00 +18°C° 0,3 mm 2 m/s 744 mmHg 93%
    07:00 +18°C° 0,3 mm 2 m/s 744 mmHg 94%
    08:00 +18°C° 0,3 mm 2 m/s 744 mmHg 94%
    09:00 +19°C° 0,3 mm 2 m/s 744 mmHg 94%
    10:00 +20°C° 0,3 mm 2 m/s 744 mmHg 93%
    11:00 +20°C° 0,3 mm 2 m/s 745 mmHg 93%
    12:00 +21°C° 0,4 mm 2 m/s 745 mmHg 92%
    13:00 +21°C° 0,4 mm 2 m/s 745 mmHg 92%
    14:00 +21°C° 0,4 mm 3 m/s 745 mmHg 92%
    15:00 +22°C° 0,2 mm 3 m/s 745 mmHg 90%
    16:00 +24°C° 0,2 mm 2 m/s 745 mmHg 87%
    17:00 +24°C° 0,2 mm 2 m/s 745 mmHg 85%
    18:00 +24°C° 0,9 mm 2 m/s 745 mmHg 88%
    19:00 +23°C° 0,9 mm 2 m/s 745 mmHg 91%
    20:00 +22°C° 0,9 mm 1 m/s 745 mmHg 94%
    21:00 +22°C° 1,4 mm 1 m/s 745 mmHg 95%
    22:00 +22°C° 1,4 mm 1 m/s 745 mmHg 96%
    23:00 +21°C° 1,4 mm 1 m/s 746 mmHg 96%

    27 Iulie, Vineri

    Timp Temperatura Precipitaţii Vânt Presiune Umiditate
    00:00 +20°C° 0,3 mm 2 m/s 746 mmHg 97%
    01:00 +20°C° 0,3 mm 2 m/s 746 mmHg 97%
    02:00 +20°C° 0,3 mm 2 m/s 746 mmHg 98%
    03:00 +20°C° 0 mm 2 m/s 746 mmHg 98%
    04:00 +20°C° 0 mm 2 m/s 746 mmHg 98%
    05:00 +20°C° 0 mm 2 m/s 746 mmHg 98%
    06:00 +21°C° 0 mm 2 m/s 746 mmHg 96%
    07:00 +23°C° 0 mm 2 m/s 747 mmHg 93%
    08:00 +24°C° 0 mm 3 m/s 747 mmHg 91%
    09:00 +26°C° 0,1 mm 3 m/s 747 mmHg 82%
    10:00 +27°C° 0,1 mm 3 m/s 747 mmHg 73%
    11:00 +29°C° 0,1 mm 3 m/s 747 mmHg 64%
    12:00 +30°C° 0,1 mm 3 m/s 747 mmHg 59%
    13:00 +32°C° 0,1 mm 4 m/s 747 mmHg 55%
    14:00 +33°C° 0,1 mm 4 m/s 747 mmHg 50%
    15:00 +32°C° 0,5 mm 4 m/s 747 mmHg 57%
    16:00 +30°C° 0,5 mm 3 m/s 747 mmHg 64%
    17:00 +28°C° 0,5 mm 3 m/s 747 mmHg 71%
    18:00 +27°C° 0,8 mm 3 m/s 747 mmHg 77%
    19:00 +25°C° 0,8 mm 2 m/s 747 mmHg 84%
    20:00 +24°C° 0,8 mm 2 m/s 747 mmHg 90%
    21:00 +23°C° 0,1 mm 2 m/s 748 mmHg 91%
    22:00 +23°C° 0,1 mm 2 m/s 748 mmHg 92%
    23:00 +23°C° 0,1 mm 2 m/s 748 mmHg 92%

    28 Iulie, Sâmbătă

    Timp Temperatura Precipitaţii Vânt Presiune Umiditate
    00:00 +21°C° 0,2 mm 2 m/s 748 mmHg 93%
    01:00 +21°C° 0,2 mm 2 m/s 748 mmHg 94%
    02:00 +20°C° 0,2 mm 2 m/s 749 mmHg 95%
    03:00 +20°C° 0,3 mm 2 m/s 749 mmHg 95%
    04:00 +20°C° 0,3 mm 2 m/s 749 mmHg 95%
    05:00 +20°C° 0,3 mm 2 m/s 749 mmHg 95%
    06:00 +21°C° 0 mm 2 m/s 749 mmHg 89%
    07:00 +24°C° 0 mm 3 m/s 749 mmHg 82%
    08:00 +25°C° 0 mm 3 m/s 749 mmHg 75%
    09:00 +27°C° 0 mm 3 m/s 749 mmHg 67%
    10:00 +28°C° 0 mm 3 m/s 750 mmHg 58%
    11:00 +30°C° 0 mm 4 m/s 750 mmHg 50%
    12:00 +30°C° 0 mm 4 m/s 750 mmHg 48%
    13:00 +32°C° 0 mm 4 m/s 749 mmHg 47%
    14:00 +31°C° 0 mm 3 m/s 749 mmHg 45%
    15:00 +31°C° 0 mm 3 m/s 749 mmHg 49%
    16:00 +30°C° 0 mm 3 m/s 749 mmHg 53%
    17:00 +29°C° 0 mm 2 m/s 749 mmHg 58%
    18:00 +28°C° 0 mm 2 m/s 749 mmHg 64%
    19:00 +26°C° 0 mm 2 m/s 750 mmHg 71%
    20:00 +24°C° 0 mm 2 m/s 750 mmHg 78%
    21:00 +23°C° 0 mm 2 m/s 750 mmHg 81%
    22:00 +21°C° 0 mm 2 m/s 750 mmHg 83%
    23:00 +21°C° 0 mm 2 m/s 750 mmHg 85%
    Arată mai mult